Starlink 34095

operational
NORAD ID: 63809 Int'l Des: 2025-092 Owner: SPXS Country: US Constellation: starlink
LEOCIRCULAR

About Starlink 34095

Description loading...

Live Position

Loading 3D Globe...

Upcoming Passes

Altitude History

Altitude vs Time

uPlot chart will show altitude changes over time

Two-Line Element Set

1 63809U 25092F 26035.23594412 .00045742 00000-0 16611-2 0 9999
2 63809 43.0040 1.8847 0001258 282.2778 77.7933 15.27587275 43494
Epoch: Feb 4, 2026 • Age: 22 hours

Current Status

Altitude 486.3 km
Velocity 7.63 km/s
Sub-Earth Point 41.50°N, 127.46°W
Launch Date May 4, 2025
Age 0.7 years
Type internet

Technical Details

Classification Payload
Mass 575.00 kg
Dry Mass 530.00 kg
Total Mass 575.00 kg
Length 0.30 m
Diameter 4.10 m
Span 29.00 m
Shape Box + pan
Manufacturer SPXS
Bus Type Starlink V2MO
Phase Status In Orbit
Owner/State SPXS/US

Large Constellations

Loading constellations...